Location: Camp Creek
(33.9000°N, 111.8167°W)
Time: 14:16:00
(UTC-07:00)

DELTA 2 R/B (1) - Visible Passes

Search period start: 02 September 2014 00:00
Search period end: 12 September 2014 00:00
Orbit: 791 x 804 km, 39.6° (Epoch: 02 September)

Date Brightness Start Highest point End Pass type
(mag) Time Alt. Az. Time Alt. Az. Time Alt. Az.
02 Sep 3.7 03:58:06 53° S 03:58:06 53° S 04:02:49 10° SE visible
02 Sep 4.6 20:15:46 10° SSW 20:20:03 26° SSE 20:20:03 26° SSE visible
02 Sep 6.2 22:00:52 10° WSW 22:00:55 10° WSW 22:00:55 10° WSW visible
03 Sep 5.2 03:30:18 23° SE 03:30:18 23° SE 03:32:17 10° SE visible
03 Sep 5.1 05:11:10 14° WSW 05:12:39 15° SW 05:15:46 10° S visible
03 Sep 4.7 19:45:24 10° SSW 19:49:49 24° SE 19:52:03 19° ESE visible
03 Sep 5.0 21:30:16 10° WSW 21:32:54 29° WSW 21:32:54 29° WSW visible
04 Sep 5.2 04:43:29 16° SSW 04:43:29 16° SSW 04:45:35 10° S visible
04 Sep 4.8 19:15:03 10° S 19:19:16 22° SE 19:23:29 10° E visible
04 Sep 3.6 20:59:41 10° WSW 21:04:42 71° SW 21:04:42 71° SW visible
05 Sep 3.4 20:29:07 10° WSW 20:34:41 76° SSE 20:36:18 47° E visible
05 Sep 6.0 22:15:56 10° W 22:17:08 16° W 22:17:08 16° W visible
06 Sep 3.5 19:58:33 10° SW 20:04:06 71° SSE 20:07:44 22° ENE visible
06 Sep 5.0 21:45:18 10° W 21:48:33 33° WNW 21:48:33 33° WNW visible
07 Sep 3.6 19:27:59 10° SW 19:33:31 66° SSE 19:39:01 10° ENE visible
07 Sep 4.1 21:14:39 10° W 21:19:49 54° NNW 21:19:49 54° NNW visible
08 Sep 3.7 18:57:27 10° SW 19:02:57 61° SSE 19:08:26 10° ENE visible
08 Sep 4.0 20:44:01 10° W 20:49:30 56° NNW 20:50:58 43° NE visible
08 Sep 6.3 22:31:09 10° WNW 22:31:46 13° WNW 22:31:46 13° WNW visible
09 Sep 4.0 20:13:22 10° W 20:18:53 59° NNW 20:22:02 25° ENE visible
09 Sep 5.6 22:00:31 10° WNW 22:02:49 24° WNW 22:02:49 24° WNW visible
10 Sep 4.0 19:42:44 10° W 19:48:16 61° NNW 19:53:01 14° ENE visible
10 Sep 4.8 21:29:54 10° WNW 21:33:48 38° NW 21:33:48 38° NW visible
11 Sep 4.0 19:12:06 10° W 19:17:39 63° NNW 19:23:12 10° ENE visible
11 Sep 4.2 20:59:16 10° WNW 21:04:39 47° N 21:04:44 47° N visible
